Showing default

FRONTIERSAT, 69015

Orbit data source: Space-Track

FRONTIERSAT, 69015 is a payload satellite owned by Calgary (CA) in SSO that was launched on Sun, 03 May 2026 UTC via an FALCON 9 launch vehicle from the Air Force Western Test Range (AFWTR). Payload-class satellites include a variety of spacecraft equipped with specific instruments for various scientific and technological missions. These include communications satellites like Starlink; space stations such as the ISS; scientific satellites like the Hubble; Earth observation satellites from companies like Planet Labs, Umbra, and HawkEye 360; GPS; miniature CubeSats for education and research; and military/defense satellites.

Loading next visibility...
Identifier
69015, 2026-100AM
Orbit
SSO
Country
Flag of CACA
Related business
Manufacturer
Calgary
Mission
Operational Amateur Technology
Bus & Motor
CUBESAT 3U, Unknown motor
Mass
~5 kg wet, ~5 kg dry
Launch date (UTC)
2026-05-03 (3 months ago)
Launch vehicle
FALCON 9
Launch site
Air Force Western Test Range (AFWTR)
Object type
Payload
Rocket body
Debris
Shape & HBR
Box, 1.1 m
Radar Cross Section
0.035 m², Medium (>0.1 m² and < 1m²)

Expand to show TLE details & history
Last TLE update: 1 day ago

TLE from 1 day ago
0 FRONTIERSAT
1 69015U 26100AM  26201.19681235  .00004603  00000-0  20355-3 0  9997
2 69015  97.3953  98.5160 0006145 293.7009  66.3583 15.22167056 11844
Epoch: 2026-07-20T04:43Z
TLE epoch observation values (Epoch: 2026-07-20T04:43:24.587Z)
Latitude
0.00008°
Longitude
89.67922°
Altitude
500.706 km
Speed
7.615 km/s
True Right ascension
06h 34m 03s
True Declination
0° 00' 00"
Sunlit
Object was in daylight at epoch
Visualization orbit readout
Latitude
Unknown
Longitude
Unknown
Altitude
Unknown
Speed
Unknown
Apparent Right ascension
Unknown
Apparent Declination
Unknown
Sunlit
N/A
Visualization observer readout
Local Sidereal Time
05:12:36
Azimuth
Unknown
Elevation
Unknown
Doppler factor
Unknown
Orbital elements
Apogee altitude
500.492 km
Perigee altitude
492.044 km
Semi-major axis
6,874.405 km
Eccentricity
0.00061
Inclination
97.3953°
RAAN
98.516°
Arg. of periapsis
293.7009°
True anomaly
66.42283°
Mean anomaly
66.3583°
Eccentric anomaly
66.39056°
Mean motion
3.80794 °/min
Orbital period
94.54 mins
BSTAR
0.00020355
Loading maneuver chart data...
Computing Atmospheric mass density...
Loading historical data...
Loading historical data...
Loading historical data...
Loading historical data...
Loading historical data...
Loading historical data...
Loading historical data...

Documentation

Showing up to 5 results
|